Regional Weather Roundup
Issued by NWS

Home | Current Version | Previous Version | Text Only | Print | Product List | Glossary On
Versions: 1 2 3 4 5 6 7 8 9 10 11 12 13 14 15 16 17 18 19 20 21 22 23 24 25 26 27 28 29 30 31 32 33 34 35 36 37 38 39 40 41 42 43 44 45 46 47 48 49 50
000
ASUS43 KLSX 251859
RWRMO

WEATHER SUMMARY FOR MISSOURI
NATIONAL WEATHER SERVICE SPRINGFIELD MO
200 PM CDT SAT OCT 25 2014

NOTE: "FAIR" INDICATES FEW OR NO CLOUDS BELOW 12,000 FEET WITH NO
       SIGNIFICANT WEATHER AND/OR OBSTRUCTIONS TO VISIBILITY.
       CURRENT SKY AND/OR WEATHER CONDITIONS ARE NOT AVAILABLE FOR
       CHILLICOTHE AND FARMINGTON.

MOZ001>031-035>038-043-044-053-054-252000-
...NORTHERN AND WESTERN MISSOURI...

CITY           SKY/WX    TMP DP  RH WIND       PRES   REMARKS
KANSAS CTY INT MOSUNNY   77  56  48 E7        30.05F
KANSAS C DTWN  SUNNY     78  59  51 VRB5      30.04F
LEE`S SUMMIT   SUNNY     77  57  50 SE5       30.06F
ST JOSEPH      SUNNY     77  50  38 VRB3      30.05F
CHILLICOTHE      N/A     77  51  40 CALM      30.06F
KIRKSVILLE     SUNNY     76  50  40 N6        30.05F

$$
MOZ066>068-077>081-088>096-101>105-252000-
...SOUTHWEST MISSOURI...

CITY           SKY/WX    TMP DP  RH WIND       PRES   REMARKS
SPRINGFIELD    SUNNY     81  64  56 VRB3      30.05F
JOPLIN         SUNNY     80  64  58 VRB5      30.05F

$$
MOZ032>034-039>042-045>050-055>058-069>072-252000-
...CENTRAL MISSOURI...

CITY           SKY/WX    TMP DP  RH WIND       PRES   REMARKS
COLUMBIA       SUNNY     78  61  55 VRB3      30.05F
JEFFERSON CITY SUNNY     78  62  57 CALM      30.03F
ROLLA          SUNNY     77  62  59 NW6       30.03F
SEDALIA        SUNNY     76  64  66 CALM      30.06F
OSAGE BEACH    SUNNY     79  63  57 W5        30.04F

$$
MOZ051-052-059>065-252000-
...EAST CENTRAL MISSOURI...

CITY           SKY/WX    TMP DP  RH WIND       PRES   REMARKS
ST LOUIS INTL  MOSUNNY   79  58  48 NW6       30.03S
SPIRIT OF STL  MOSUNNY   80  56  43 N5        30.01F
ST CHARLES     SUNNY     78  57  48 W9        30.01F

$$
MOZ072>076-082>087-097>100-106>115-252000-
...SOUTH CENTRAL AND SOUTHEAST MISSOURI...

CITY           SKY/WX    TMP DP  RH WIND       PRES   REMARKS
CAPE GIRARDEAU SUNNY     78  63  59 W3        30.01F
FARMINGTON     SUNNY     79  59  50 N7        30.05F
POPLAR BLUFF   SUNNY     80  62  54 CALM      30.00F
WEST PLAINS    SUNNY     81  62  52 NW8       30.06F

$$



USA.gov is the U.S. government's official web portal to all federal, state and local government web resources and services.